Location: Belfast
(54.5830°N, 5.9330°W)
Time: 01:38:00
(UTC+00:00)

ISS - Pass Details

Date: 25 January 2021
Orbit: 417 x 422 km, 51.6° (Epoch: 25 February)

Event Time Altitude Azimuth Distance (km) Brightness Sun altitude
Rises 20:03:25 0° 265° (W) 2,379 1.3 -27.8°
Reaches altitude 10° 20:05:33 10° 260° (W) 1,514 -0.1 -28.1°
Enters shadow 20:06:39 19° 254° (WSW) 1,088 -1.0 -28.2°
